RYR225 EHAM-EGAC

Flight info

Callsign RYR225
Flight time 1h 36m
Altitude 36000
Route BERGI L602 NALAX L46 GETNO DCT REMSI DCT NINEB M148 MAGEE
Aircraft B738/M-SDE2E3FGHIRWXY/LB1

Departure

Time 2026-05-04 19:01
Airport Amsterdam Airport Schiphol (EHAM)

Arrival

Time 2026-05-04 20:37
Airport George Best Belfast City Airport (EGAC)
Time Latitude Longitude Altitude Speed Heading
2026-05-04 17:54 52.31032 4.75457 -2 ft 0 kts 148°
2026-05-04 18:18 52.31022 4.75468 -2 ft 0 kts 148°
2026-05-04 18:18 52.31010 4.75480 -2 ft 0 kts 148°
2026-05-04 18:18 52.31045 4.75444 -2 ft 0 kts 148°
2026-05-04 18:39 52.31045 4.75445 -2 ft 0 kts 148°
2026-05-04 18:43 52.31051 4.75438 -2 ft 2 kts 148°
2026-05-04 18:43 52.31065 4.75424 -2 ft 2 kts 122°
2026-05-04 18:43 52.31065 4.75399 -2 ft 2 kts 63°
2026-05-04 18:43 52.31061 4.75387 -2 ft 0 kts 59°
2026-05-04 18:44 52.31062 4.75389 -2 ft 2 kts 59°
2026-05-04 18:45 52.31082 4.75445 -2 ft 9 kts 59°
2026-05-04 18:45 52.31139 4.75497 -2 ft 10 kts
2026-05-04 18:45 52.31210 4.75490 -2 ft 11 kts 356°
2026-05-04 18:45 52.31287 4.75483 -2 ft 11 kts 357°
2026-05-04 18:46 52.31374 4.75470 -2 ft 15 kts 339°
2026-05-04 18:46 52.31421 4.75298 -2 ft 21 kts 267°
2026-05-04 18:46 52.31411 4.75021 -2 ft 26 kts 267°
2026-05-04 18:46 52.31404 4.74770 -2 ft 20 kts 266°
2026-05-04 18:47 52.31397 4.74549 -2 ft 16 kts 266°
2026-05-04 18:47 52.31392 4.74407 -2 ft 12 kts 267°
2026-05-04 18:47 52.31402 4.74301 -2 ft 9 kts 309°
2026-05-04 18:47 52.31461 4.74284 -2 ft 9 kts 10°
2026-05-04 18:48 52.31523 4.74294 -2 ft 9 kts
2026-05-04 18:48 52.31584 4.74300 -2 ft 9 kts
2026-05-04 18:48 52.31643 4.74307 -2 ft 9 kts
2026-05-04 18:48 52.31712 4.74313 -2 ft 11 kts
2026-05-04 18:49 52.31800 4.74321 -2 ft 14 kts
2026-05-04 18:49 52.31906 4.74331 -2 ft 16 kts
2026-05-04 18:49 52.31997 4.74328 -2 ft 12 kts 339°
2026-05-04 18:49 52.32013 4.74310 -2 ft 0 kts 317°
2026-05-04 18:50 52.32026 4.74279 -2 ft 7 kts 293°
2026-05-04 18:50 52.32032 4.74187 -2 ft 9 kts 272°
2026-05-04 18:50 52.32036 4.74067 -3 ft 12 kts 273°
2026-05-04 18:50 52.32041 4.73918 -3 ft 14 kts 273°
2026-05-04 18:51 52.32047 4.73765 -2 ft 13 kts 273°
2026-05-04 18:51 52.32052 4.73614 -2 ft 14 kts 274°
2026-05-04 18:51 52.32064 4.73429 -2 ft 20 kts 288°
2026-05-04 18:51 52.32172 4.73240 -2 ft 26 kts 320°
2026-05-04 18:52 52.32306 4.73052 -2 ft 25 kts 320°
2026-05-04 18:52 52.32439 4.72864 -2 ft 27 kts 319°
2026-05-04 18:52 52.32574 4.72675 -2 ft 20 kts 319°
2026-05-04 18:52 52.32672 4.72530 -2 ft 18 kts 313°
2026-05-04 18:53 52.32721 4.72442 -2 ft 11 kts 313°
2026-05-04 18:53 52.32776 4.72340 -2 ft 14 kts 311°
2026-05-04 18:53 52.32836 4.72181 -2 ft 20 kts 274°
2026-05-04 18:53 52.32869 4.71912 -2 ft 29 kts 307°
2026-05-04 18:54 52.33008 4.71656 -2 ft 22 kts 311°
2026-05-04 18:54 52.33073 4.71535 -2 ft 10 kts 311°
2026-05-04 18:54 52.33094 4.71453 -2 ft 6 kts 255°
2026-05-04 18:54 52.33061 4.71399 -2 ft 7 kts 223°
2026-05-04 18:55 52.33010 4.71322 -2 ft 13 kts 219°
2026-05-04 18:55 52.32861 4.71066 -2 ft 9 kts 263°
2026-05-04 18:55 52.32862 4.71058 -2 ft 0 kts 270°
2026-05-04 18:56 52.32862 4.71052 -2 ft 2 kts 270°
2026-05-04 18:56 52.32862 4.71046 -3 ft 0 kts 270°
2026-05-04 18:57 52.32862 4.71045 -3 ft 1 kts 270°
2026-05-04 18:57 52.32865 4.70963 -3 ft 11 kts 283°
2026-05-04 18:57 52.32925 4.70897 -4 ft 11 kts 358°
2026-05-04 18:57 52.32951 4.70900 -4 ft 0 kts
2026-05-04 19:00 52.33155 4.70919 -5 ft 71 kts
2026-05-04 19:01 52.33902 4.70989 4 ft 144 kts
2026-05-04 19:01 52.34999 4.71115 542 ft 172 kts
2026-05-04 19:01 52.36329 4.71303 1002 ft 208 kts
2026-05-04 19:01 52.37713 4.71473 2255 ft 194 kts
2026-05-04 19:02 52.39109 4.71605 2831 ft 208 kts
2026-05-04 19:02 52.40575 4.71738 3321 ft 215 kts
2026-05-04 19:02 52.42093 4.71873 3793 ft 222 kts
2026-05-04 19:02 52.43640 4.72012 4346 ft 226 kts
2026-05-04 19:03 52.45194 4.72150 4895 ft 229 kts
2026-05-04 19:03 52.46810 4.72294 5443 ft 233 kts
2026-05-04 19:03 52.48444 4.72440 6060 ft 237 kts
2026-05-04 19:03 52.50101 4.72588 6745 ft 239 kts
2026-05-04 19:04 52.51762 4.72643 7451 ft 239 kts 348°
2026-05-04 19:04 52.53208 4.71453 8053 ft 234 kts 312°
2026-05-04 19:04 52.54315 4.69493 8738 ft 236 kts 310°
2026-05-04 19:04 52.55428 4.67520 9356 ft 240 kts 310°
2026-05-04 19:05 52.56593 4.65505 9998 ft 245 kts 311°
2026-05-04 19:05 52.57784 4.63496 10627 ft 247 kts 313°
2026-05-04 19:05 52.58998 4.61484 11276 ft 248 kts 312°
2026-05-04 19:05 52.60217 4.59491 11997 ft 247 kts 313°
2026-05-04 19:06 52.61462 4.57471 12518 ft 254 kts 314°
2026-05-04 19:06 52.62727 4.55432 13174 ft 256 kts 314°
2026-05-04 19:06 52.64009 4.53371 13802 ft 258 kts 314°
2026-05-04 19:06 52.65302 4.51297 14407 ft 258 kts 314°
2026-05-04 19:07 52.66583 4.49245 15072 ft 256 kts 314°
2026-05-04 19:07 52.67840 4.47231 15683 ft 255 kts 314°
2026-05-04 19:07 52.69114 4.45191 16304 ft 254 kts 313°
2026-05-04 19:07 52.70394 4.43138 16713 ft 263 kts 313°
2026-05-04 19:08 52.71729 4.40993 17067 ft 272 kts 313°
2026-05-04 19:08 52.73094 4.38802 17628 ft 274 kts 313°
2026-05-04 19:08 52.74463 4.36602 18211 ft 275 kts 313°
2026-05-04 19:08 52.75643 4.34123 18684 ft 275 kts 298°
2026-05-04 19:09 52.76572 4.31365 19201 ft 275 kts 296°
2026-05-04 19:09 52.77485 4.28571 19735 ft 277 kts 296°
2026-05-04 19:09 52.78401 4.25777 20388 ft 277 kts 296°
2026-05-04 19:09 52.79312 4.23019 21018 ft 276 kts 296°
2026-05-04 19:10 52.80243 4.20221 21496 ft 278 kts 296°
2026-05-04 19:10 52.81173 4.17434 22002 ft 277 kts 296°
2026-05-04 19:10 52.82109 4.14638 22502 ft 277 kts 296°
2026-05-04 19:10 52.83044 4.11848 22982 ft 279 kts 296°
2026-05-04 19:11 52.83995 4.09011 23327 ft 284 kts 296°
2026-05-04 19:11 52.84958 4.06139 23732 ft 287 kts 295°
2026-05-04 19:11 52.85928 4.03245 24124 ft 289 kts 295°
2026-05-04 19:11 52.86899 4.00346 24456 ft 292 kts 295°
2026-05-04 19:12 52.87890 3.97385 24807 ft 294 kts 295°
2026-05-04 19:12 52.89894 3.91384 25333 ft 306 kts 294°
2026-05-04 19:12 52.90937 3.88254 25561 ft 313 kts 294°
2026-05-04 19:13 52.91993 3.85084 25849 ft 319 kts 294°
2026-05-04 19:13 52.93093 3.81774 25755 ft 336 kts 294°
2026-05-04 19:13 52.94244 3.78307 25747 ft 350 kts 295°
2026-05-04 19:13 52.95442 3.74701 25741 ft 361 kts 294°
2026-05-04 19:14 52.96657 3.71043 25700 ft 364 kts 294°
2026-05-04 19:14 52.97897 3.67296 25708 ft 376 kts 295°
2026-05-04 19:14 52.98740 3.64746 25704 ft 384 kts 295°
2026-05-04 19:14 53.00469 3.59516 25701 ft 394 kts 295°
2026-05-04 19:15 53.01787 3.55531 25690 ft 392 kts 295°
2026-05-04 19:15 53.03101 3.51573 25685 ft 391 kts 295°
2026-05-04 19:15 53.04429 3.47569 25702 ft 400 kts 295°
2026-05-04 19:15 53.05787 3.43466 25694 ft 411 kts 295°
2026-05-04 19:16 53.06707 3.40683 25800 ft 414 kts 295°
2026-05-04 19:16 53.08088 3.36512 26383 ft 409 kts 295°
2026-05-04 19:16 53.09442 3.32414 27272 ft 397 kts 294°
2026-05-04 19:16 53.10494 3.28271 28112 ft 379 kts 279°
2026-05-04 19:17 53.11017 3.24111 28995 ft 366 kts 278°
2026-05-04 19:17 53.11533 3.20028 29855 ft 355 kts 278°
2026-05-04 19:17 53.12043 3.16076 30635 ft 342 kts 278°
2026-05-04 19:17 53.12544 3.12222 31078 ft 340 kts 278°
2026-05-04 19:18 53.13050 3.08337 31217 ft 345 kts 278°
2026-05-04 19:18 53.13563 3.04403 31400 ft 350 kts 279°
2026-05-04 19:18 53.14085 3.00408 31540 ft 354 kts 279°
2026-05-04 19:18 53.14606 2.96434 31781 ft 356 kts 279°
2026-05-04 19:19 53.15134 2.92406 32048 ft 357 kts 279°
2026-05-04 19:19 53.16206 2.84179 32051 ft 366 kts 279°
2026-05-04 19:20 53.17274 2.75961 32029 ft 357 kts 279°
2026-05-04 19:20 53.18317 2.67875 32061 ft 362 kts 279°
2026-05-04 19:21 53.19392 2.59473 32064 ft 379 kts 279°
2026-05-04 19:21 53.20505 2.50742 32057 ft 395 kts 280°
2026-05-04 19:22 53.21659 2.41576 32063 ft 410 kts 280°
2026-05-04 19:22 53.22841 2.32091 32062 ft 424 kts 280°
2026-05-04 19:23 53.24056 2.22279 32065 ft 438 kts 280°
2026-05-04 19:23 53.25289 2.12273 32043 ft 441 kts 280°
2026-05-04 19:24 53.26511 2.02283 32034 ft 442 kts 281°
2026-05-04 19:24 53.27732 1.92219 32050 ft 442 kts 281°
2026-05-04 19:25 53.28937 1.82209 32057 ft 438 kts 281°
2026-05-04 19:25 53.30135 1.72175 32069 ft 443 kts 281°
2026-05-04 19:26 53.31336 1.62049 32051 ft 445 kts 280°
2026-05-04 19:26 53.32534 1.51880 32068 ft 446 kts 281°
2026-05-04 19:27 53.33890 1.41793 32024 ft 446 kts 284°
2026-05-04 19:27 53.35404 1.31731 32059 ft 445 kts 284°
2026-05-04 19:28 53.36892 1.21674 32066 ft 445 kts 283°
2026-05-04 19:28 53.38345 1.11598 32064 ft 446 kts 283°
2026-05-04 19:29 53.39783 1.01486 32056 ft 447 kts 284°
2026-05-04 19:29 53.41210 0.91384 32064 ft 449 kts 284°
2026-05-04 19:30 53.42645 0.81159 32064 ft 451 kts 283°
2026-05-04 19:30 53.44079 0.70880 32063 ft 454 kts 283°
2026-05-04 19:31 53.45516 0.60507 32060 ft 456 kts 283°
2026-05-04 19:31 53.46945 0.50119 32052 ft 458 kts 284°
2026-05-04 19:32 53.48374 0.39673 32051 ft 459 kts 284°
2026-05-04 19:32 53.49791 0.29289 32050 ft 460 kts 284°
2026-05-04 19:33 53.51217 0.18811 32055 ft 460 kts 283°
2026-05-04 19:33 53.52636 0.08300 32050 ft 460 kts 283°
2026-05-04 19:34 53.54025 -0.02198 32038 ft 459 kts 283°
2026-05-04 19:34 53.55390 -0.12629 32049 ft 459 kts 283°
2026-05-04 19:35 53.56756 -0.23108 32047 ft 458 kts 283°
2026-05-04 19:35 53.58113 -0.33582 32050 ft 458 kts 283°
2026-05-04 19:36 53.59465 -0.44074 32051 ft 458 kts 283°
2026-05-04 19:36 53.60808 -0.54555 32048 ft 458 kts 283°
2026-05-04 19:37 53.62141 -0.65036 32046 ft 458 kts 283°
2026-05-04 19:37 53.63465 -0.75533 32044 ft 458 kts 283°
2026-05-04 19:38 53.64774 -0.85972 32043 ft 458 kts 283°
2026-05-04 19:38 53.66082 -0.96487 32041 ft 458 kts 283°
2026-05-04 19:39 53.67385 -1.07016 32035 ft 459 kts 283°
2026-05-04 19:39 53.68681 -1.17565 32042 ft 459 kts 283°
2026-05-04 19:40 53.69968 -1.28127 32031 ft 460 kts 283°
2026-05-04 19:40 53.71261 -1.38798 32038 ft 468 kts 283°
2026-05-04 19:41 53.72545 -1.49668 32042 ft 476 kts 282°
2026-05-04 19:41 53.73798 -1.60721 32032 ft 480 kts 282°
2026-05-04 19:42 53.75006 -1.71735 32018 ft 478 kts 282°
2026-05-04 19:42 53.76197 -1.82782 32019 ft 477 kts 281°
2026-05-04 19:43 53.77380 -1.93809 32042 ft 476 kts 281°
2026-05-04 19:43 53.78554 -2.04824 32047 ft 475 kts 281°
2026-05-04 19:44 53.79717 -2.15823 32055 ft 475 kts 281°
2026-05-04 19:44 53.80863 -2.26773 32051 ft 475 kts 281°
2026-05-04 19:45 53.82005 -2.37780 32056 ft 475 kts 281°
2026-05-04 19:45 53.83137 -2.48794 32055 ft 475 kts 281°
2026-05-04 19:46 53.84259 -2.59819 32052 ft 475 kts 281°
2026-05-04 19:46 53.85371 -2.70858 32057 ft 475 kts 281°
2026-05-04 19:47 53.86464 -2.81806 32056 ft 475 kts 281°
2026-05-04 19:47 53.87558 -2.92865 32074 ft 475 kts 281°
2026-05-04 19:48 53.88639 -3.03907 32075 ft 475 kts 281°
2026-05-04 19:48 53.89712 -3.14975 32067 ft 475 kts 281°
2026-05-04 19:49 53.90765 -3.25946 32068 ft 475 kts 281°
2026-05-04 19:49 53.91815 -3.36999 32069 ft 475 kts 281°
2026-05-04 19:50 53.92858 -3.48069 32067 ft 475 kts 280°
2026-05-04 19:50 53.93878 -3.59125 31978 ft 469 kts 280°
2026-05-04 19:50 53.94370 -3.64553 31657 ft 460 kts 281°
2026-05-04 19:51 53.94853 -3.69878 31238 ft 455 kts 280°
2026-05-04 19:51 53.95336 -3.75200 30611 ft 456 kts 280°
2026-05-04 19:51 53.95827 -3.80506 30029 ft 454 kts 283°
2026-05-04 19:51 53.96819 -3.85546 29418 ft 448 kts 301°
2026-05-04 19:52 53.98411 -3.90041 28989 ft 441 kts 302°
2026-05-04 19:52 53.99992 -3.94488 28477 ft 437 kts 302°
2026-05-04 19:52 54.01531 -3.98934 27903 ft 436 kts 301°
2026-05-04 19:52 54.03043 -4.03389 27405 ft 432 kts 301°
2026-05-04 19:53 54.04510 -4.07753 26945 ft 429 kts 301°
2026-05-04 19:53 54.05985 -4.12150 26452 ft 425 kts 301°
2026-05-04 19:53 54.07554 -4.16402 25963 ft 423 kts 306°
2026-05-04 19:53 54.09264 -4.20457 25485 ft 420 kts 308°
2026-05-04 19:54 54.10996 -4.24440 25046 ft 416 kts 307°
2026-05-04 19:54 54.12701 -4.28419 24552 ft 415 kts 306°
2026-05-04 19:54 54.14373 -4.32413 24064 ft 414 kts 306°
2026-05-04 19:54 54.16028 -4.36414 23636 ft 411 kts 306°
2026-05-04 19:55 54.17666 -4.40389 23163 ft 407 kts 305°
2026-05-04 19:55 54.19258 -4.44261 22895 ft 399 kts 305°
2026-05-04 19:55 54.20846 -4.48119 22424 ft 396 kts 305°
2026-05-04 19:55 54.22426 -4.51963 21955 ft 394 kts 305°
2026-05-04 19:56 54.23997 -4.55790 21407 ft 393 kts 305°
2026-05-04 19:56 54.25568 -4.59638 20812 ft 395 kts 305°
2026-05-04 19:56 54.27132 -4.63486 20433 ft 391 kts 304°
2026-05-04 19:56 54.28656 -4.67248 20110 ft 380 kts 304°
2026-05-04 19:57 54.30144 -4.70927 19708 ft 370 kts 304°
2026-05-04 19:57 54.31592 -4.74508 19305 ft 361 kts 304°
2026-05-04 19:57 54.33008 -4.78015 18906 ft 353 kts 304°
2026-05-04 19:57 54.34395 -4.81456 18463 ft 348 kts 304°
2026-05-04 19:58 54.35758 -4.84840 17933 ft 343 kts 304°
2026-05-04 19:58 54.37108 -4.88194 17401 ft 339 kts 304°
2026-05-04 19:58 54.38440 -4.91510 16889 ft 337 kts 304°
2026-05-04 19:58 54.39757 -4.94794 16406 ft 340 kts 304°
2026-05-04 19:59 54.41112 -4.98173 15894 ft 338 kts 304°
2026-05-04 19:59 54.42423 -5.01448 15394 ft 334 kts 304°
2026-05-04 19:59 54.43731 -5.04721 14897 ft 330 kts 303°
2026-05-04 19:59 54.45025 -5.07944 14408 ft 326 kts 304°
2026-05-04 20:00 54.46315 -5.11129 13934 ft 322 kts 304°
2026-05-04 20:00 54.47590 -5.14280 13399 ft 319 kts 304°
2026-05-04 20:00 54.48846 -5.17393 12879 ft 316 kts 304°
2026-05-04 20:00 54.50091 -5.20482 12360 ft 312 kts 304°
2026-05-04 20:01 54.51501 -5.23300 11830 ft 311 kts 319°
2026-05-04 20:01 54.53186 -5.25596 11352 ft 307 kts 321°
2026-05-04 20:01 54.54880 -5.27819 10857 ft 305 kts 321°
2026-05-04 20:01 54.56560 -5.30030 10371 ft 302 kts 321°
2026-05-04 20:02 54.58202 -5.32209 10149 ft 290 kts 321°
2026-05-04 20:02 54.59744 -5.34270 10082 ft 279 kts 320°
2026-05-04 20:02 54.61269 -5.36324 10098 ft 278 kts 320°
2026-05-04 20:02 54.62801 -5.38397 10100 ft 279 kts 320°
2026-05-04 20:03 54.64331 -5.40472 10100 ft 279 kts 320°
2026-05-04 20:03 54.65857 -5.42548 10090 ft 279 kts 320°
2026-05-04 20:03 54.67383 -5.44625 10083 ft 279 kts 320°
2026-05-04 20:03 54.68908 -5.46705 10091 ft 279 kts 320°
2026-05-04 20:04 54.70431 -5.48782 10083 ft 279 kts 320°
2026-05-04 20:04 54.71437 -5.50157 10087 ft 278 kts 320°
2026-05-04 20:04 54.73449 -5.52913 10087 ft 278 kts 319°
2026-05-04 20:04 54.74352 -5.54519 10067 ft 274 kts 303°
2026-05-04 20:05 54.75044 -5.58495 10067 ft 257 kts 266°
2026-05-04 20:05 54.74521 -5.61354 10075 ft 247 kts 237°
2026-05-04 20:05 54.73740 -5.62805 10093 ft 252 kts 217°
2026-05-04 20:05 54.72112 -5.63965 10078 ft 259 kts 188°
2026-05-04 20:06 54.70311 -5.64008 10096 ft 262 kts 180°
2026-05-04 20:06 54.68483 -5.63825 10087 ft 264 kts 179°
2026-05-04 20:06 54.66645 -5.63612 10086 ft 265 kts 179°
2026-05-04 20:06 54.64801 -5.63391 10077 ft 266 kts 179°
2026-05-04 20:07 54.62956 -5.63166 10074 ft 265 kts 179°
2026-05-04 20:07 54.61117 -5.62941 10064 ft 264 kts 178°
2026-05-04 20:07 54.59292 -5.62723 10064 ft 262 kts 178°
2026-05-04 20:07 54.57473 -5.62508 10070 ft 261 kts 178°
2026-05-04 20:08 54.55669 -5.62296 10074 ft 259 kts 178°
2026-05-04 20:08 54.53872 -5.62084 10080 ft 257 kts 178°
2026-05-04 20:08 54.52093 -5.61875 9973 ft 256 kts 178°
2026-05-04 20:08 54.50339 -5.61669 9693 ft 255 kts 178°
2026-05-04 20:09 54.48560 -5.61460 9329 ft 257 kts 178°
2026-05-04 20:09 54.46777 -5.61252 9006 ft 256 kts 178°
2026-05-04 20:09 54.45006 -5.61044 8717 ft 255 kts 178°
2026-05-04 20:09 54.43238 -5.60836 8418 ft 254 kts 178°
2026-05-04 20:10 54.41481 -5.60628 8156 ft 252 kts 178°
2026-05-04 20:10 54.39724 -5.60422 8123 ft 255 kts 178°
2026-05-04 20:10 54.37952 -5.60214 8088 ft 254 kts 179°
2026-05-04 20:10 54.36202 -5.60007 8087 ft 252 kts 179°
2026-05-04 20:11 54.34466 -5.60169 8074 ft 249 kts 200°
2026-05-04 20:11 54.32876 -5.61253 8100 ft 247 kts 207°
2026-05-04 20:11 54.31305 -5.62510 8101 ft 249 kts 208°
2026-05-04 20:11 54.29737 -5.63789 8095 ft 250 kts 208°
2026-05-04 20:12 54.28183 -5.65064 8094 ft 251 kts 208°
2026-05-04 20:12 54.26609 -5.66358 8089 ft 251 kts 208°
2026-05-04 20:12 54.25035 -5.67653 8087 ft 250 kts 208°
2026-05-04 20:12 54.23467 -5.68944 8080 ft 249 kts 208°
2026-05-04 20:13 54.21911 -5.70223 8086 ft 247 kts 208°
2026-05-04 20:13 54.20392 -5.71563 8078 ft 244 kts 219°
2026-05-04 20:13 54.19349 -5.73714 8097 ft 232 kts 251°
2026-05-04 20:13 54.19152 -5.76416 8106 ft 232 kts 283°
2026-05-04 20:14 54.19840 -5.78912 8100 ft 236 kts 311°
2026-05-04 20:14 54.21007 -5.80853 8028 ft 234 kts 317°
2026-05-04 20:14 54.22224 -5.82659 7799 ft 231 kts 318°
2026-05-04 20:14 54.23448 -5.84448 7487 ft 232 kts 318°
2026-05-04 20:15 54.24674 -5.86232 7209 ft 230 kts 318°
2026-05-04 20:15 54.25890 -5.87998 6943 ft 228 kts 318°
2026-05-04 20:15 54.27086 -5.89732 6689 ft 227 kts 318°
2026-05-04 20:15 54.28290 -5.91478 6430 ft 226 kts 318°
2026-05-04 20:16 54.29485 -5.93210 6139 ft 225 kts 318°
2026-05-04 20:16 54.30676 -5.94936 6032 ft 225 kts 319°
2026-05-04 20:16 54.31874 -5.96677 6004 ft 228 kts 319°
2026-05-04 20:16 54.33075 -5.98430 5982 ft 225 kts 319°
2026-05-04 20:17 54.34260 -6.00161 5970 ft 223 kts 318°
2026-05-04 20:17 54.35443 -6.01892 5985 ft 224 kts 318°
2026-05-04 20:17 54.36620 -6.03621 5963 ft 219 kts 318°
2026-05-04 20:17 54.37745 -6.05274 5953 ft 206 kts 318°
2026-05-04 20:18 54.38807 -6.06833 5876 ft 196 kts 318°
2026-05-04 20:18 54.39869 -6.08154 5698 ft 187 kts 339°
2026-05-04 20:18 54.41141 -6.08293 5369 ft 187 kts
2026-05-04 20:18 54.42469 -6.07916 5103 ft 203 kts 360°
2026-05-04 20:19 54.43837 -6.08160 4998 ft 193 kts 337°
2026-05-04 20:19 54.45110 -6.08822 4507 ft 196 kts 358°
2026-05-04 20:19 54.46440 -6.08127 3664 ft 211 kts 31°
2026-05-04 20:19 54.47616 -6.06588 3189 ft 204 kts 35°
2026-05-04 20:20 54.48688 -6.05157 2940 ft 186 kts 35°
2026-05-04 20:20 54.49666 -6.03829 2805 ft 180 kts 36°
2026-05-04 20:20 54.50646 -6.02489 2674 ft 183 kts 36°
2026-05-04 20:20 54.51613 -6.01163 2620 ft 175 kts 36°
2026-05-04 20:21 54.52501 -5.99765 2375 ft 166 kts 43°
2026-05-04 20:21 54.53275 -5.98372 2041 ft 161 kts 44°
2026-05-04 20:21 54.54808 -5.95688 1551 ft 155 kts 36°
2026-05-04 20:22 54.55656 -5.94538 1497 ft 154 kts 34°
2026-05-04 20:22 54.56533 -5.93444 1361 ft 158 kts 33°
2026-05-04 20:22 54.57439 -5.92398 999 ft 154 kts 31°
2026-05-04 20:22 54.58296 -5.91409 772 ft 145 kts 34°
2026-05-04 20:23 54.59130 -5.90427 560 ft 146 kts 32°
2026-05-04 20:23 54.59974 -5.89434 378 ft 148 kts 34°
2026-05-04 20:23 54.60815 -5.88442 162 ft 147 kts 33°
2026-05-04 20:23 54.61640 -5.87447 27 ft 141 kts 33°
2026-05-04 20:24 54.62438 -5.86496 177 ft 136 kts 33°
2026-05-04 20:24 54.63189 -5.85494 416 ft 148 kts 39°
2026-05-04 20:24 54.64076 -5.84168 334 ft 188 kts 41°
2026-05-04 20:24 54.65056 -5.82583 815 ft 198 kts 45°
2026-05-04 20:25 54.65992 -5.80772 1199 ft 209 kts 46°
2026-05-04 20:25 54.67015 -5.78787 1375 ft 234 kts 46°
2026-05-04 20:25 54.68125 -5.76567 1677 ft 254 kts 51°
2026-05-04 20:25 54.68782 -5.73745 2116 ft 257 kts 84°
2026-05-04 20:26 54.68532 -5.70704 2753 ft 260 kts 112°
2026-05-04 20:26 54.67497 -5.68192 2990 ft 260 kts 141°
2026-05-04 20:26 54.65884 -5.66793 2969 ft 260 kts 172°
2026-05-04 20:26 54.64124 -5.66873 3001 ft 253 kts 195°
2026-05-04 20:27 54.62423 -5.67599 3004 ft 251 kts 198°
2026-05-04 20:27 54.60754 -5.68402 2991 ft 252 kts 198°
2026-05-04 20:27 54.59072 -5.69250 2988 ft 251 kts 198°
2026-05-04 20:27 54.57391 -5.70108 3002 ft 251 kts 198°
2026-05-04 20:28 54.55725 -5.71020 2996 ft 251 kts 206°
2026-05-04 20:28 54.54273 -5.72639 3016 ft 248 kts 219°
2026-05-04 20:28 54.52884 -5.74412 3002 ft 250 kts 218°
2026-05-04 20:28 54.51482 -5.76185 3002 ft 251 kts 218°
2026-05-04 20:29 54.50071 -5.77968 2998 ft 251 kts 218°
2026-05-04 20:29 54.48663 -5.79748 3001 ft 252 kts 218°
2026-05-04 20:29 54.47252 -5.81526 2998 ft 252 kts 218°
2026-05-04 20:29 54.45838 -5.83307 2993 ft 252 kts 218°
2026-05-04 20:30 54.44439 -5.85070 2994 ft 252 kts 218°
2026-05-04 20:30 54.43029 -5.86844 2996 ft 251 kts 218°
2026-05-04 20:30 54.41620 -5.88613 2994 ft 249 kts 218°
2026-05-04 20:30 54.40421 -5.90612 2972 ft 231 kts 243°
2026-05-04 20:31 54.40039 -5.93097 2977 ft 206 kts 277°
2026-05-04 20:31 54.40530 -5.95197 2973 ft 181 kts 316°
2026-05-04 20:31 54.41555 -5.96404 3030 ft 181 kts 328°
2026-05-04 20:31 54.42618 -5.97508 2966 ft 175 kts 328°
2026-05-04 20:32 54.43613 -5.98684 2621 ft 175 kts 313°
2026-05-04 20:32 54.44223 -6.00500 2244 ft 176 kts 297°
2026-05-04 20:32 54.44777 -6.02379 2037 ft 177 kts 303°
2026-05-04 20:32 54.45704 -6.03709 1994 ft 177 kts 343°
2026-05-04 20:33 54.46919 -6.03838 2007 ft 178 kts
2026-05-04 20:33 54.48123 -6.03297 1942 ft 181 kts 24°
2026-05-04 20:33 54.49157 -6.02121 1887 ft 168 kts 35°
2026-05-04 20:33 54.50057 -6.00939 2091 ft 162 kts 33°
2026-05-04 20:34 54.50960 -5.99799 2105 ft 163 kts 32°
2026-05-04 20:34 54.51906 -5.98708 1888 ft 162 kts 31°
2026-05-04 20:34 54.52817 -5.97676 1794 ft 157 kts 31°
2026-05-04 20:34 54.53750 -5.96640 1809 ft 162 kts 30°
2026-05-04 20:35 54.54691 -5.95580 1750 ft 161 kts 30°
2026-05-04 20:35 54.55634 -5.94523 1534 ft 162 kts 31°
2026-05-04 20:35 54.56568 -5.93433 1246 ft 161 kts 33°
2026-05-04 20:35 54.57454 -5.92304 912 ft 154 kts 35°
2026-05-04 20:36 54.58326 -5.91299 637 ft 148 kts 31°
2026-05-04 20:36 54.59186 -5.90349 574 ft 149 kts 32°
2026-05-04 20:36 54.60056 -5.89360 412 ft 150 kts 32°
2026-05-04 20:36 54.60917 -5.88332 126 ft 150 kts 34°
2026-05-04 20:37 54.61743 -5.87325 24 ft 139 kts 34°
2026-05-04 20:37 54.62336 -5.86624 20 ft 72 kts 34°
2026-05-04 20:37 54.62470 -5.86466 18 ft 9 kts 34°
2026-05-04 20:37 54.62501 -5.86430 18 ft 0 kts 34°
2026-05-04 20:38 54.62498 -5.86414 18 ft 2 kts 138°
2026-05-04 20:38 54.62461 -5.86453 18 ft 12 kts 218°
2026-05-04 20:38 54.62378 -5.86566 21 ft 20 kts 219°
2026-05-04 20:39 54.62243 -5.86735 20 ft 27 kts 214°
2026-05-04 20:39 54.62081 -5.86928 17 ft 28 kts 215°
2026-05-04 20:39 54.61935 -5.87102 16 ft 20 kts 214°
2026-05-04 20:39 54.61850 -5.87167 17 ft 13 kts 166°
2026-05-04 20:40 54.61783 -5.87051 20 ft 11 kts 120°
2026-05-04 20:40 54.61723 -5.87000 20 ft 11 kts 198°
2026-05-04 20:40 54.61661 -5.87070 20 ft 10 kts 214°
2026-05-04 20:40 54.61601 -5.87140 21 ft 10 kts 214°
2026-05-04 20:41 54.61583 -5.87162 20 ft 0 kts 214°
2026-05-04 20:41 54.61577 -5.87169 20 ft 3 kts 213°
2026-05-04 20:41 54.61531 -5.87167 20 ft 10 kts 165°
2026-05-04 20:41 54.61500 -5.87145 22 ft 0 kts 156°